Weather History for KSMP - February, 2013

Change the Weather History Date:

Tuesday, February 12, 2013

  Actual Average Record
Temperature  
Mean Temperature 32 °F -  
Max Temperature 34 °F 30 °F 46 °F (2006)
Min Temperature 30 °F 23 °F 19 °F (2002)
Degree Days  
Heating Degree Days 33    
Moisture  
Dew Point 30 °F    
Average Humidity 88    
Maximum Humidity 96    
Minimum Humidity 81    
Precipitation  
Precipitation 0.03 in - - ()
Sea Level Pressure  
Sea Level Pressure 30.24 in    
Wind  
Wind Speed 10 mph (West)    
Max Wind Speed 17 mph    
Max Gust Speed 38 mph    
Visibility 2 miles    
Events Fog , Rain , Snow    
Averages and records for this station are not official NWS values.
T = Trace of Precipitation, MM = Missing Value Source: NWS Daily Summary

Daily Weather History Graph

Daily Weather History Graph

Search for Another Location

Airport or City:

Trip Planner

Search our weather history database for the weather conditions in past years. The results will help you decide how hot, cold, wet, or windy it might be!

Date:

Astronomy

Feb. 12, 2013 Rise Set
Actual Time 7:14 AM PST 5:25 PM PST
Civil Twilight 6:42 AM PST 5:56 PM PST
Nautical Twilight 6:06 AM PST 6:32 PM PST
Astronomical Twilight 5:31 AM PST 7:08 PM PST
Moon 8:00 AM PST (2/12) 8:48 PM PST (2/12)
Length of Visible Light 11h 14m
Length of Day
10h 10m
Waxing Crescent, 8% of the Moon is Illuminated
Feb 12
Waxing Crescent
Feb 17
First Quarter
Feb 25
Full
Mar 4
Last Quarter
Mar 11
New

Hourly Weather History & Observations

Time (PST) Temp. Windchill Dew Point Humidity Pressure Visibility Wind Dir Wind Speed Gust Speed Precip Events Conditions
12:01 AM 33.8 °F 26.4 °F 28.4 °F 81% 30.22 in 1.8 mi West 9.2 mph 20.7 mph N/A   Overcast
12:35 AM 33.8 °F 25.8 °F 28.4 °F 81% 30.22 in 3.0 mi West 10.4 mph 19.6 mph N/A   Overcast
12:47 AM 33.8 °F 27.0 °F 28.4 °F 81% 30.22 in 1.2 mi West 8.1 mph 20.7 mph N/A   Overcast
1:28 AM 33.8 °F 25.3 °F 28.4 °F 81% 30.21 in 0.5 mi West 11.5 mph 19.6 mph N/A Fog Fog
1:41 AM 32.0 °F 23.6 °F 28.4 °F 87% 30.22 in 0.2 mi West 10.4 mph 17.3 mph N/A Fog Fog
3:09 AM 30.2 °F 21.3 °F 28.4 °F 93% 30.22 in 0.5 mi West 10.4 mph 20.7 mph N/A Fog Light Freezing Fog
4:44 AM 32.0 °F 24.2 °F 28.4 °F 87% 30.23 in 1.0 mi West 9.2 mph - N/A   Overcast
5:56 AM 32.0 °F 24.8 °F 28.9 °F 88% 30.31 in 0.8 mi West 8.1 mph - N/A   Overcast
8:56 AM 32.0 °F 24.8 °F 30.0 °F 92% 30.35 in 0.2 mi West 8.1 mph 17.3 mph 0.00 in Fog Fog
9:27 AM 32.0 °F 25.6 °F 30.2 °F 93% 30.27 in 1.0 mi Variable 6.9 mph - N/A   Overcast
11:23 AM 33.8 °F 26.4 °F 30.2 °F 87% 30.27 in 0.2 mi West 9.2 mph 18.4 mph 0.01 in Fog Fog
11:51 AM 33.8 °F 25.3 °F 30.2 °F 87% 30.27 in 0.5 mi West 11.5 mph 20.7 mph 0.01 in Fog Fog
4:08 PM 33.8 °F 25.8 °F 32.0 °F 93% 30.24 in 2.0 mi West 10.4 mph 21.9 mph 0.00 in   Overcast
4:15 PM 33.8 °F 24.3 °F 30.2 °F 87% 30.24 in 10.0 mi West 13.8 mph 21.9 mph 0.00 in   Overcast
4:22 PM 33.8 °F 25.8 °F 30.2 °F 87% 30.24 in 10.0 mi West 10.4 mph 25.3 mph 0.00 in   Overcast
4:56 PM 33.1 °F 24.9 °F 30.9 °F 92% 30.29 in 3.0 mi West 10.4 mph 27.6 mph 0.00 in   Overcast
4:59 PM 33.8 °F 25.8 °F 30.2 °F 87% 30.22 in 1.8 mi West 10.4 mph 27.6 mph 0.00 in   Overcast
7:05 PM 33.8 °F 24.3 °F 32.0 °F 93% 30.22 in 1.8 mi West 13.8 mph 27.6 mph 0.02 in Snow Light Snow
10:56 PM 34.0 °F 23.4 °F 33.1 °F 96% 30.26 in 1.8 mi West 17.3 mph 34.5 mph 0.03 in Rain Light Rain
11:10 PM 33.8 °F 23.2 °F 32.0 °F 93% 30.18 in 1.2 mi West 17.3 mph 38.0 mph 0.00 in   Overcast